FENGYUN 1C DEB

Satellite information

Favourite Embed

Satellite Type and Status

DEBRISIN ORBIT

Key statistics

Satellite FENGYUN 1C DEB at a glance.

Uptime

9715

Days in orbit

Revolutions

≈ 14.2

Per day

Orbit

SSO

Sun Synchronous Orbit

Inclination

99.0

Latest

Satellite identification and parameters

Extended collection of information and parameters for FENGYUN 1C DEB.

Object identification

Identified? True

Debris? True

Object name: FENGYUN 1C DEB

International designator: 1999-025ATU

Object number (NORAD): 30758

Object ID (CCSDS): 30758

Country: PEOPLES REPUBLIC OF CHINA (PRC)

Current information (Y/N): Y

RCS size: SMALL

Orbital parameters

Period: 101.615 minutes

Inclination: 99.0179 deg

SMA: 7213.261 km

Apoapsis: 862.809 km

Periapsis: 807.443 km

RAAN: 106.3101 deg

Eccentricy: 0.00383783

Argument of periapsis: 0.884 deg

Mean anomaly: 15.4398 deg

Mean motion: 14.17115668 rev/day

Mean motion (dot): 0.00002852 rev/day2

B* drag term: 0.0014282794 1/REarth

Two-line elements (TLE)

Creation date: Dec. 14, 2025, 3:07 a.m.

Reference frame: TEME

Reference center: EARTH

Epoch: Dec. 13, 2025, 2:29 p.m. UTC

TLE line 0: 0 FENGYUN 1C DEB

TLE line 1: 1 30758U 99025ATU 25347.60387529 .00002852 00000-0 14283-2 0 9996

TLE line 2: 2 30758 99.0179 106.3101 0038378 0.8840 15.4398 14.17115668965034

Live tracking on map

Real-time ground track for satellite FENGYUN 1C DEB.

In-orbit conjunctions

A list of the most updated potential collisions computed for object FENGYUN 1C DEB.

Target Orbit TCA Probability of collision Miss distance Type
FENGYUN 1C DEB SSO 2025-10-09 20:46:58 0.0005588229 77.0 (m) DEBRIS
INTERCOSMOS 22 LEO 2025-01-05 08:47:50 0.000407628 514.0 (m) PAYLOAD

Associated space launch

Chinese polar orbiting meteorological satellite

FENGYUN 1C DEB was lifted into orbit during the mission ‘Long March 4B | Feng Yun 1C’, on board a Long March 4B space rocket.

The launch took place on May 10, 1999, 1:33 a.m. from Launch Complex 7.

For more information about the launch, click the button.

Launch to space Long March 4B | Feng Yun 1C
Long March 4B | Feng Yun 1C

Agency: N/A

Status: Launch Successful

Launch date: May 10, 1999, 1:33 a.m. UTC

Rocket: Long March 4B

Launch pad: Launch Complex 7

Location: Taiyuan Satellite Launch Center, People's Republic of China

...

Latest news about this satellite

There are no fresh news available about this satellite. Check back as we update our databases every day.


Newsletter sign-up

Weekly statistics, charts and insights to help you stay on top of the space industry.